Home > Weather > Rarotonga > Past weeks

Flag for Cook Islands Past Weather in Rarotonga, Cook Islands — Yesterday and Last 2 Weeks

Now
77 °F

Broken clouds.


Feels Like: 79 °F
Forecast: 66 / 77 °F
Wind: 3 mph from Northwest

Location: Rarotonga

Current Time: Jul 26, 2016 at 3:15:05 PM

Latest Report: Jul 26, 2016 at 2:00 PM


Visibility: N/A

Pressure: 30.01 "Hg

Humidity: 74%

Dew Point: 68 °F

Location of RarotongaLocation

Past Weather in Rarotonga — Graph

°F

Rarotonga Temperature Yesterday

Maximum temperature yesterday: 79 °F (at 11:00 AM)
Minimum temperature yesterday: 68 °F (at 6:00 AM)
Average temperature yesterday: 73 °F

High & Low Weather Summary for the Past Weeks

 TemperatureHumidityPressure
High82 °F (Jul 21, 1:00 PM)100% (Jul 12, 1:00 AM)30.09 "Hg (Jul 12, 1:00 AM)
Low66 °F (Jul 15, 9:00 PM)54% (Jul 14, 10:00 AM)29.65 "Hg (Jul 13, 4:00 AM)
Average74 °F83%29.95 "Hg
* Reported Jul 11 1:00 PM — Jul 26 1:00 PM, Rarotonga, Weather by CustomWeather, © 2016

Note: Actual official high and low records may vary slightly from our data, if they occured in-between our weather recording intervals... More about our weather records

Advertising

Rarotonga Weather History for the Previous 24 Hours

Scroll right to see more
 ConditionsComfort  
Time TempWeatherWind HumidityBarometerVisibility
1:00 PM
Tue, Jul 26
75 °FBroken clouds.3 mph83%30.01 "HgN/A
12:00 PM77 °FScattered showers. Broken clouds.5 mph79%30.04 "HgN/A
11:00 AM73 °FSprinkles. Broken clouds.2 mph83%30.07 "HgN/A
10:00 AM72 °FSprinkles. Broken clouds.5 mph88%30.07 "HgN/A
9:00 AM73 °FScattered showers. Broken clouds.2 mph83%30.04 "HgN/A
8:00 AM72 °FScattered showers. Passing clouds.5 mph83%30.04 "HgN/A
7:00 AM72 °FScattered showers. Passing clouds.2 mph83%30.01 "HgN/A
6:00 AM68 °FPassing clouds.3 mph88%29.98 "HgN/A
5:00 AM68 °FPassing clouds.No wind88%29.98 "HgN/A
4:00 AM66 °FPassing clouds.1 mph94%29.98 "HgN/A
3:00 AM70 °FPassing clouds.2 mph83%29.98 "HgN/A
2:00 AM70 °FPassing clouds.1 mph83%30.01 "HgN/A
1:00 AM68 °FPassing clouds.2 mph88%30.04 "HgN/A
12:00 AM68 °FPassing clouds.2 mph94%30.04 "HgN/A
11:00 PM
Mon, Jul 25
70 °FPassing clouds.No wind88%30.04 "HgN/A
10:00 PM70 °FPassing clouds.3 mph83%30.07 "HgN/A
9:00 PM70 °FPassing clouds.5 mph88%30.07 "HgN/A
8:00 PM70 °FPassing clouds.5 mph88%30.04 "HgN/A
7:00 PM72 °FPassing clouds.5 mph83%30.04 "HgN/A
6:00 PM77 °FScattered clouds.5 mph69%30.01 "HgN/A
5:00 PM77 °FScattered clouds.8 mph69%30.01 "HgN/A
4:00 PM79 °FScattered clouds.8 mph70%29.98 "HgN/A
3:00 PM79 °FPassing clouds.12 mph70%30.01 "HgN/A
Weather by CustomWeather, © 2016

See weather overviewHow to use our weather pages